Retour au catalogue

GALILEO 15 (267)

ActifNavigationMEO
NORAD 41859·PAYLOAD·🇪🇺 EU

Lancé Nov 17, 2016 depuis Guiana Space Centre

Loading…

Prochains Passages (prochaines 24 heures)

TLE

FraisSource: CelesTrak SupGP

Époque: Sep 13, 2026, 23:59 UTC

1 41859C 16069A   26256.99979167  .00000000  00000+0  00000+0 0  2561
2 41859  55.5553  98.6267 0002832   0.1257  57.1027  1.70474048    13

Suivez GALILEO 15 (267) en temps réel avec AllMySat

Download on the App Store